User: anonymous   Login
Location: Stara Lesna
(49.1528°N, 20.2911°E)
Time: 20:17:09
(UTC+01:00)
Language:

COSMOS 2441 - Orbit

View from above orbital plane
View from above orbital plane
View from above satellite
View from above satellite

Ground track
Ground track

The orbit data is extracted from the following two-line orbital elements,

1 33272U 08037A   19324.49601000  .00000038  00000-0  20011-4 0  9993
2 33272  98.0151 295.9439 0016452 173.8512 186.2889 14.51815239599621
Epoch (UTC): 20 November 2019 11:54:15
Eccentricity: 0.0016452
inclination: 98.0151°
perigee height: 708 km
apogee height: 731 km
right ascension of ascending node: 295.9439°
argument of perigee: 173.8512°
revolutions per day: 14.51815239
mean anomaly at epoch: 186.2889°
orbit number at epoch: 59962

The dashed part of the orbit path shows where the satellite is in the earth's shadow,  

DLR